User: anonymous   Login
Location: Cicognara
(44.9500°N, 10.4667°E)
Time: 08:14:57
(UTC+00:00)
Language:

ALOS 2 - Orbit

View from above orbital plane
View from above orbital plane
View from above satellite
View from above satellite

Ground track
Ground track

The orbit data is extracted from the following two-line orbital elements,

1 39766U 14029A   22028.81068261  .00000201  00000-0  33835-4 0  9992
2 39766  97.9197 127.9494 0001363  86.3801 273.7501 14.79475724414981
Epoch (UTC): 28 January 2022 19:27:22
Eccentricity: 0.0001363
inclination: 97.9197°
perigee height: 630 km
apogee height: 632 km
right ascension of ascending node: 127.9494°
argument of perigee: 86.3801°
revolutions per day: 14.79475724
mean anomaly at epoch: 273.7501°
orbit number at epoch: 41498

The dashed part of the orbit path shows where the satellite is in the earth's shadow,  

DLR